Flag for Germany Weather past 2 weeks in Detmold, North Rhine-Westphalia, Germany

Now
44 °F

Clear.


Feels Like: 44 °F
Forecast: 32 / 58 °F
Wind: 1 mph from East

Location: Bad Lippspringe

Current Time: Apr 18, 2015 at 10:02:01 PM

Latest Report: Apr 18, 2015 at 9:00 PM


Visibility: 19 mi

Pressure: 30.27 "Hg

Humidity: 66%

Dew point: 33 °F

Location of DetmoldLocation

Historic Weather in Detmold — Graph

°F

Detmold temperature yesterday

Maximum temperature yesterday: 53 °F (at 5:00 PM)
Minimum temperature yesterday: 41 °F (at 7:00 AM)
Average temperature yesterday: 46 °F

Past Weeks' High & Low Weather Summary

 TemperatureHumidityPressure
High72 °F (Apr 15, 5:00 PM)98% (Apr 5, 5:00 AM)30.64 "Hg (Apr 5, 5:00 AM)
Low28 °F (Apr 5, 7:00 AM)33% (Apr 15, 6:00 PM)29.92 "Hg (Apr 15, 8:00 PM)
Average47 °F69%30.25 "Hg
* Reported Apr 3 9:00 PM — Apr 18 9:00 PM, Detmold, Weather by CustomWeather, © 2015

Note: Actual official high and low records may vary slightly from our data, if they occured in-between our weather recording intervals... More about our weather records

Advertising

Detmold weather history for previous 24 hours

 ConditionsComfort  
Time TempWeatherWind HumidityBarometerVisibility
9:00 PM
Sat, Apr 18
44 °FClear.1 mph66%30.27 "Hg19 mi
8:00 PM51 °FSunny.2 mph42%30.27 "Hg25 mi
7:00 PM53 °FSunny.3 mph39%30.27 "Hg28 mi
6:00 PM54 °FSunny.3 mph40%30.28 "Hg22 mi
5:00 PM54 °FSunny.1 mph34%30.29 "Hg31 mi
4:00 PM54 °FPassing clouds.3 mph36%30.31 "Hg22 mi
3:00 PM53 °FScattered clouds.2 mph39%30.32 "Hg31 mi
2:00 PM53 °FPassing clouds.5 mph40%30.33 "Hg25 mi
1:00 PM52 °FSunny.5 mph42%30.34 "Hg19 mi
12:00 PM50 °FPassing clouds.6 mph49%30.34 "Hg31 mi
11:00 AM49 °FPassing clouds.5 mph56%30.34 "Hg28 mi
10:00 AM47 °FSunny.3 mph64%30.34 "Hg17 mi
9:00 AM43 °FSunny.1 mph75%30.33 "Hg14 mi
8:00 AM38 °FPassing clouds.No wind82%30.33 "Hg9 mi
7:00 AM32 °FSunny.1 mph96%30.32 "Hg6 mi
6:00 AM31 °FClear.1 mph95%30.30 "Hg7 mi
5:00 AM31 °FClear.1 mph94%30.29 "Hg11 mi
4:00 AM35 °FClear.1 mph90%30.27 "Hg19 mi
3:00 AM37 °FPassing clouds.1 mph86%30.26 "Hg22 mi
2:00 AM40 °FOvercast.1 mph79%30.24 "Hg25 mi
1:00 AM39 °FOvercast.1 mph79%30.23 "Hg28 mi
12:00 AM40 °FClear.1 mph76%30.21 "Hg28 mi
11:00 PM
Fri, Apr 17
44 °FClear.3 mph65%30.19 "Hg28 mi
10:00 PM43 °FOvercast.2 mph71%30.17 "Hg22 mi
Weather by CustomWeather, © 2015

See weather overviewHow to use our weather pages